Wind_Speed
45 40 40 39 38 39 39 42 41 44 40 36 36 34 40 39 37 26 23 20 21 23 25 22 22 21 21 21 23 23 22 23 22 22 23 22 23 22
43 40 39 41 48 43 44 46 46 46 43 40 38 40 35 36 28 25 21 23 23 25 25 23 21 20 21 23 24 24 23 24 23 23 23 23 23 21
40 44 49 51 45 48 46 45 39 36 41 43 44 45 37 34 29 22 23 23 23 24 25 23 21 21 21 22 24 25 25 26 22 23 23 23 22 21
54 52 56 45 52 51 44 47 43 47 50 47 47 41 42 36 28 19 21 22 24 25 23 20 21 21 22 24 23 25 25 25 22 22 23 24 21 18
54 49 46 52 47 44 44 53 58 56 51 48 33 36 33 27 18 21 27 20 26 23 22 21 21 22 24 25 24 24 24 24 22 21 23 22 20 17
43 48 53 47 47 53 52 50 41 43 46 44 39 33 28 27 23 27 20 23 24 23 22 22 23 24 26 24 23 23 23 22 21 22 21 19 17 15
51 45 45 48 49 44 45 45 37 38 38 33 35 34 29 24 21 18 22 25 24 22 22 22 24 25 25 23 23 21 22 21 20 21 20 18 14 10
51 54 58 60 47 47 45 47 49 44 38 38 33 32 27 23 21 22 23 24 23 23 23 24 25 25 24 23 22 21 20 19 19 19 19 15 11 9
50 48 47 51 46 49 55 47 39 39 35 36 37 23 30 21 26 21 21 23 23 23 24 24 24 24 23 23 21 19 18 18 18 17 16 14 10 4
25 31 34 33 24 21 33 28 33 31 33 32 34 33 32 29 25 18 21 24 23 22 23 23 23 24 23 22 20 18 16 16 16 15 15 13 11 8
26 26 29 27 21 28 28 32 22 31 32 40 38 28 25 21 17 18 23 24 22 23 23 22 23 23 23 20 18 16 15 15 14 15 14 11 8 10
26 27 24 28 31 36 36 24 28 31 29 25 27 25 20 17 17 19 22 22 23 24 23 23 23 22 21 18 16 15 14 13 15 15 15 14 21 11
30 29 28 28 27 29 29 31 33 34 34 37 38 16 16 18 22 22 23 26 28 26 23 23 22 21 19 17 15 14 13 13 15 16 17 21 24 22
36 35 35 34 33 34 34 35 37 37 32 30 24 18 18 22 25 27 28 29 29 26 24 22 21 20 18 16 14 13 14 14 14 16 17 18 20 22
43 44 41 41 42 40 40 39 40 38 38 34 29 32 26 24 25 26 27 28 27 24 23 22 21 18 17 15 14 14 14 14 15 16 17 17 17 17
42 43 42 42 44 45 45 46 46 47 45 40 40 37 29 26 26 28 28 28 26 25 24 21 20 18 16 16 15 14 15 15 15 17 18 18 16 14
42 43 44 42 42 43 46 47 43 44 42 42 31 28 27 26 28 30 28 31 25 24 23 21 21 19 17 17 16 15 14 16 17 18 18 17 15 13
44 43 42 43 43 41 42 43 42 41 44 47 41 30 31 29 31 27 29 28 26 24 23 22 20 18 18 17 16 15 15 17 18 19 18 16 15 14
39 40 39 40 40 40 41 44 43 44 38 38 31 28 34 28 29 28 29 26 27 22 23 21 20 19 18 16 16 16 17 18 19 20 19 16 15 15
39 38 40 39 36 41 44 45 44 44 45 45 44 40 32 31 32 31 27 27 25 23 22 21 20 19 18 17 17 17 18 19 20 22 21 19 16 15
38 39 37 39 40 39 42 46 45 45 43 42 38 36 35 38 35 31 28 29 27 23 22 21 22 19 18 20 19 18 19 19 21 23 21 20 17 16
36 35 36 37 37 36 35 40 48 48 42 43 40 40 37 33 32 34 30 29 27 25 25 23 20 21 21 20 19 19 19 20 21 23 23 23 21 19
32 32 32 33 33 32 30 32 33 36 39 43 44 40 37 38 36 33 29 28 30 27 24 21 22 22 22 21 20 19 19 19 19 20 21 21 23 23
Wind_Direction
235 239 242 243 246 249 253 262 269 271 277 288 288 289 296 290 288 262 254 278 280 290 293 293 295 297 297 300 299 302 304 303 306 307 306 310 306 303
236 241 244 250 251 250 256 265 265 275 281 285 287 297 287 288 273 252 264 271 278 288 289 290 293 292 292 294 298 301 303 303 305 306 307 305 304 302
236 240 245 245 246 252 256 261 263 271 281 283 292 290 263 269 259 256 261 269 279 284 283 288 289 286 288 294 298 304 303 297 304 302 303 300 302 304
232 239 244 246 252 256 254 276 259 278 277 283 290 264 274 261 247 253 259 272 279 277 278 280 284 289 294 294 299 300 296 296 300 301 302 300 302 302
237 241 246 247 252 257 251 262 269 271 270 280 264 274 248 251 242 248 262 267 276 281 284 285 286 289 292 296 298 297 295 296 298 300 296 298 301 299
247 247 251 253 254 257 270 262 265 269 270 273 265 246 242 241 239 253 258 272 277 280 280 282 287 293 294 296 297 295 294 294 294 293 292 295 294 290
256 252 253 256 267 258 252 259 264 261 267 255 254 257 242 245 247 261 265 272 275 275 277 283 289 291 292 296 295 291 287 287 288 286 288 293 295 268
251 258 260 265 256 265 258 262 271 267 258 247 251 247 250 234 245 251 261 267 268 271 279 283 286 290 293 292 290 288 286 283 279 279 282 288 283 291
257 258 250 262 268 266 267 265 255 250 242 251 263 253 238 230 240 247 258 262 266 272 276 282 287 289 291 288 285 284 282 276 269 267 271 281 279 264
259 255 251 251 254 254 251 249 258 260 243 261 240 257 239 243 237 247 261 264 267 273 277 283 286 288 287 285 284 281 272 264 257 255 260 257 256 254
280 282 283 280 281 273 274 268 265 276 259 245 259 252 248 243 244 251 259 264 269 272 275 280 283 284 283 283 279 274 267 257 249 247 245 228 241 196
280 286 283 277 280 280 272 271 268 277 262 258 235 231 235 242 266 267 266 265 269 272 277 278 279 280 279 277 271 266 259 246 238 233 228 202 195 218
273 270 271 276 273 274 277 284 277 273 258 259 267 233 232 248 257 260 262 266 267 270 273 275 277 276 271 268 261 259 253 238 230 225 221 211 213 235
270 267 262 260 264 266 272 273 273 275 264 248 258 233 236 248 252 254 258 260 263 266 269 271 270 267 264 256 253 248 240 235 227 222 217 219 223 231
272 268 266 263 259 259 262 264 267 269 272 273 269 246 235 241 251 256 257 257 261 265 265 266 264 259 254 250 246 240 236 230 221 216 217 218 220 224
273 271 267 263 261 259 261 262 265 262 254 255 257 234 246 247 249 256 256 255 259 262 260 259 256 251 244 241 238 235 230 226 219 215 214 213 213 213
273 269 267 264 261 260 262 256 258 265 269 268 250 256 244 246 251 248 256 253 251 255 257 254 247 241 236 236 235 230 226 223 220 216 207 203 206 213
270 269 265 261 258 257 257 260 265 258 258 264 260 257 269 264 250 249 255 244 246 245 249 243 238 234 233 234 233 228 222 219 217 210 206 207 217 229
274 271 268 264 259 255 255 255 257 261 263 263 265 260 264 248 246 249 256 256 241 238 237 233 230 231 233 231 229 226 222 217 211 207 209 214 227 244
273 267 263 261 258 254 253 256 258 257 252 251 258 256 251 249 250 251 249 251 234 230 229 228 230 232 232 228 222 222 219 215 211 207 208 221 236 246
276 276 271 264 260 257 253 253 260 254 252 254 253 251 249 248 250 246 251 250 231 225 226 225 228 229 224 224 223 225 222 218 212 209 220 237 247 249
286 277 275 271 268 260 255 253 253 256 253 246 248 250 245 246 244 246 244 243 226 216 218 223 224 223 224 224 225 225 222 220 220 225 234 240 245 247
288 288 276 271 268 263 260 256 255 254 250 244 244 243 239 243 243 243 241 239 226 216 213 216 221 224 225 228 226 225 225 224 225 230 234 240 246 249
Height
3122 3123 3125 3126 3126 3127 3127 3127 3125 3125 3126 3128 3126 3126 3123 3120 3117 3116 3115 3115 3115 3113 3112 3110 3108 3106 3105 3104 3102 3099 3097 3094 3091 3090 3087 3085 3083 3082
3112 3115 3117 3117 3119 3118 3118 3118 3119 3117 3114 3116 3117 3114 3112 3112 3110 3109 3108 3109 3108 3107 3105 3103 3102 3099 3098 3097 3096 3093 3090 3088 3086 3084 3082 3080 3078 3076
3104 3104 3104 3106 3107 3108 3108 3109 3109 3108 3106 3105 3105 3105 3103 3102 3101 3102 3103 3102 3101 3100 3099 3096 3095 3093 3091 3089 3089 3087 3084 3083 3080 3079 3077 3074 3074 3073
3089 3093 3095 3096 3096 3098 3098 3098 3098 3100 3100 3097 3096 3093 3093 3092 3091 3094 3095 3095 3094 3093 3091 3088 3087 3086 3084 3083 3079 3079 3078 3075 3074 3074 3071 3071 3069 3068
3081 3083 3085 3086 3088 3088 3089 3089 3090 3089 3088 3087 3084 3083 3083 3084 3085 3086 3087 3087 3087 3085 3083 3082 3080 3079 3078 3077 3073 3073 3071 3070 3068 3068 3067 3065 3065 3062
3072 3074 3077 3076 3075 3077 3079 3080 3078 3078 3077 3076 3075 3072 3074 3075 3077 3078 3078 3079 3078 3077 3077 3075 3074 3072 3071 3069 3067 3067 3066 3064 3063 3063 3062 3062 3061 3058
3065 3066 3066 3066 3067 3068 3067 3068 3067 3067 3066 3066 3065 3064 3065 3066 3067 3070 3072 3072 3071 3070 3070 3067 3066 3065 3063 3062 3063 3061 3059 3058 3057 3058 3057 3055 3056 3056
3056 3057 3056 3054 3056 3056 3056 3056 3057 3055 3055 3055 3056 3056 3057 3057 3059 3061 3065 3065 3064 3064 3062 3060 3060 3058 3056 3055 3055 3055 3054 3053 3053 3053 3051 3053 3051 3051
3044 3044 3044 3044 3044 3042 3042 3043 3043 3043 3044 3044 3045 3046 3046 3049 3052 3053 3055 3057 3056 3056 3055 3054 3052 3051 3049 3048 3048 3047 3048 3049 3047 3047 3047 3049 3050 3050
3037 3035 3035 3033 3032 3032 3033 3031 3032 3033 3034 3035 3035 3037 3037 3039 3041 3044 3047 3048 3048 3049 3049 3047 3045 3044 3043 3041 3041 3040 3041 3041 3044 3042 3044 3045 3046 3047
3031 3031 3030 3027 3026 3026 3026 3025 3025 3025 3026 3025 3027 3028 3030 3031 3032 3035 3040 3041 3041 3041 3042 3040 3038 3036 3037 3036 3035 3035 3036 3037 3038 3039 3041 3043 3044 3046
3025 3025 3024 3022 3021 3022 3021 3018 3019 3019 3019 3018 3020 3019 3021 3023 3026 3029 3032 3032 3032 3033 3034 3033 3032 3031 3030 3030 3029 3030 3031 3032 3033 3035 3037 3040 3043 3042
3017 3017 3017 3015 3015 3014 3013 3012 3011 3011 3011 3012 3013 3014 3015 3017 3020 3022 3024 3025 3024 3024 3025 3025 3024 3025 3024 3025 3025 3024 3025 3027 3029 3031 3033 3035 3039 3040
3009 3008 3007 3006 3005 3006 3006 3005 3006 3004 3003 3004 3006 3005 3008 3012 3013 3015 3016 3016 3017 3017 3016 3017 3017 3018 3018 3019 3020 3020 3020 3023 3027 3028 3029 3031 3034 3037
2995 2995 2995 2995 2995 2994 2996 2996 2996 2995 2995 2994 2997 2997 2998 3000 3002 3005 3006 3008 3008 3008 3008 3009 3010 3011 3012 3013 3015 3016 3016 3018 3020 3024 3027 3028 3028 3032
2981 2980 2980 2981 2981 2982 2984 2985 2984 2983 2983 2984 2986 2985 2986 2989 2991 2995 2997 2998 2999 3001 3001 3002 3002 3004 3005 3008 3010 3011 3013 3015 3016 3019 3022 3025 3026 3028
2967 2966 2966 2967 2967 2968 2970 2971 2971 2972 2972 2973 2971 2976 2976 2977 2981 2984 2987 2989 2990 2992 2993 2994 2995 2997 2998 3001 3004 3005 3008 3010 3011 3014 3017 3020 3022 3024
2952 2952 2952 2953 2953 2955 2957 2958 2957 2961 2963 2963 2963 2965 2968 2969 2972 2975 2977 2978 2981 2983 2986 2987 2988 2991 2993 2995 2998 3000 3002 3006 3008 3010 3013 3016 3018 3020
2938 2938 2938 2938 2940 2942 2944 2946 2948 2949 2949 2952 2951 2955 2958 2960 2963 2966 2968 2969 2972 2975 2977 2980 2982 2985 2987 2988 2993 2995 2998 3001 3003 3006 3009 3011 3013 3015
2927 2925 2925 2926 2926 2928 2930 2931 2932 2935 2936 2940 2942 2945 2948 2951 2954 2957 2959 2961 2963 2967 2970 2973 2976 2978 2980 2983 2986 2990 2992 2995 2998 3001 3004 3006 3008 3009
2914 2913 2911 2912 2913 2914 2915 2917 2918 2920 2924 2927 2930 2933 2937 2941 2944 2947 2950 2952 2954 2958 2962 2966 2968 2971 2974 2977 2980 2983 2987 2990 2993 2996 2999 3001 3002 3004
2902 2900 2899 2899 2899 2900 2901 2902 2904 2906 2910 2914 2918 2922 2926 2930 2934 2938 2940 2943 2946 2949 2953 2958 2962 2965 2967 2971 2974 2978 2981 2985 2987 2990 2993 2995 2996 2998
2892 2890 2888 2887 2888 2888 2888 2890 2891 2893 2895 2900 2905 2911 2915 2919 2924 2928 2931 2934 2938 2941 2946 2951 2955 2959 2961 2965 2968 2971 2975 2978 2981 2983 2986 2988 2990 2992